Location: Carrières
(48.9495°N, 2.0407°E)
Time: 16:18:22
(UTC+00:00)

Cosmos 1340 Rocket - Pass Details

Date: 28 January 2023
Orbit: 515 x 558 km, 81.2° (Epoch: 25 March)

Event Time Altitude Azimuth Distance (km) Brightness Sun altitude
Rises 17:53:55 0° 170° (S) 2,622 6.3 -11.8°
Reaches altitude 10° 17:56:08 10° 162° (SSE) 1,743 5.3 -12.2°
Maximum altitude 17:59:40 37° 94° (E) 829 3.2 -12.7°
Drops below altitude 10° 18:03:16 10° 27° (NNE) 1,774 5.0 -13.3°
Enters shadow 18:03:20 10° 27° (NNE) 1,799 5.1 -13.3°
